Departure
Paros National Airport
Paros, GR
cloud Weather
- Wind
- 360° / 14 kt
- Visibility
- -
- Ceiling
- CLR
- Temp / Dew
- 25°C / 19°C
- Altimeter
- 29.85 inHg
Obs: 2026-09-04T00:20:00.000Z
Raw METAR
METAR LGPA 040020Z AUTO 36014KT //// // ////// 25/19 Q1011 RE//
route Route
Departure
Paros, GR
Obs: 2026-09-04T00:20:00.000Z
METAR LGPA 040020Z AUTO 36014KT //// // ////// 25/19 Q1011 RE//
Arrival
Spata-Artemida, GR
Obs: 2026-09-04T00:20:00.000Z
METAR LGAV 040020Z 36004KT 320V040 9999 FEW030 26/12 Q1013 NOSIG TAF LGAV 032300Z 0400/0424 02014KT 9999 FEW025 TEMPO 0409/0418 02014G24KT
| Airline | Flights shown |
|---|---|
| Olympic Airlines | 34 |
| Sky Express | 15 |
| Date | Flight | Aircraft | Takeoff | Landing | Duration | Arr Δ |
|---|---|---|---|---|---|---|
| 2026-07-26 | OAL9PA | 46BC49 | Jul 26, 16:35 UTC | Jul 26, 17:00 UTC | 25m | - |
| 2026-07-26 | OAL7JS | 46BC51 | Jul 26, 16:20 UTC | Jul 26, 16:45 UTC | 25m | - |
| 2026-07-26 | SEH479 | 46D276 | Jul 26, 15:20 UTC | Jul 26, 15:50 UTC | 30m | - |
| 2026-07-26 | OAL075 | 46BC55 | Jul 26, 14:35 UTC | Jul 26, 15:05 UTC | 30m | - |
| 2026-07-26 | SEH475 | 46A60F | Jul 26, 14:10 UTC | Jul 26, 14:45 UTC | 35m | - |
| 2026-07-26 | OAL073 | 46BC4E | Jul 26, 13:20 UTC | Jul 26, 13:55 UTC | 35m | - |
| 2026-07-26 | OAL069 | 46BC53 | Jul 26, 11:40 UTC | Jul 26, 12:15 UTC | 35m | - |
| 2026-07-26 | SEH473 | 46D0C9 | Jul 26, 10:20 UTC | Jul 26, 10:40 UTC | 20m | - |
| 2026-07-26 | OAL067 | 46BC4A | Jul 26, 09:50 UTC | Jul 26, 10:15 UTC | 25m | - |
| 2026-07-26 | OAL071 | 46BC39 | Jul 26, 07:45 UTC | Jul 26, 08:10 UTC | 25m | - |
| 2026-07-26 | OAL063 | 46BC4C | Jul 26, 07:00 UTC | Jul 26, 07:25 UTC | 25m | - |
| 2026-07-26 | OAL1PA | 46BC4C | Jul 26, 04:20 UTC | Jul 26, 04:45 UTC | 25m | - |
| 2026-07-26 | OAL9KT | 46BC49 | Jul 26, 03:25 UTC | Jul 26, 03:55 UTC | 30m | - |
| 2026-07-25 | SEH477 | 46A60F | Jul 25, 17:55 UTC | Jul 25, 18:20 UTC | 25m | - |
| 2026-07-25 | OAL9PA | 46BC52 | Jul 25, 16:55 UTC | Jul 25, 17:20 UTC | 25m | - |
| 2026-07-25 | SEH479 | 46D1CF | Jul 25, 16:05 UTC | Jul 25, 16:30 UTC | 25m | - |
| 2026-07-25 | OAL7JS | 46BC55 | Jul 25, 15:35 UTC | Jul 25, 16:00 UTC | 25m | - |
| 2026-07-25 | SEH475 | 46A60F | Jul 25, 14:55 UTC | Jul 25, 15:25 UTC | 30m | - |
| 2026-07-25 | OAL075 | 46BC4A | Jul 25, 14:25 UTC | Jul 25, 14:45 UTC | 20m | - |
| 2026-07-25 | OAL073 | 46BC52 | Jul 25, 13:55 UTC | Jul 25, 14:20 UTC | 25m | - |
| 2026-07-25 | SEH473 | 46A60F | Jul 25, 12:05 UTC | Jul 25, 12:30 UTC | 25m | - |
| 2026-07-25 | OAL069 | 46BC4E | Jul 25, 11:50 UTC | Jul 25, 12:15 UTC | 25m | - |
| 2026-07-25 | OAL067 | 46BC49 | Jul 25, 10:35 UTC | Jul 25, 11:05 UTC | 30m | - |
| 2026-07-25 | OAL063 | 46BC55 | Jul 25, 07:00 UTC | Jul 25, 07:25 UTC | 25m | - |
| 2026-07-25 | SEH471 | 46CED4 | Jul 25, 05:45 UTC | Jul 25, 06:15 UTC | 30m | - |
| 2026-07-25 | OAL9KT | 46BC55 | Jul 25, 04:00 UTC | Jul 25, 04:25 UTC | 25m | - |
| 2026-07-24 | SEH477 | 46D1CF | Jul 24, 18:00 UTC | Jul 24, 18:40 UTC | 40m | - |
| 2026-07-24 | OAL9PA | 46BC4D | Jul 24, 17:40 UTC | Jul 24, 18:15 UTC | 35m | - |
| 2026-07-24 | SEH479 | 46A60F | Jul 24, 16:05 UTC | Jul 24, 16:30 UTC | 25m | - |
| 2026-07-24 | OAL7JS | 46BC4B | Jul 24, 15:40 UTC | Jul 24, 16:10 UTC | 30m | - |
| 2026-07-24 | SEH475 | 469934 | Jul 24, 15:00 UTC | Jul 24, 15:30 UTC | 30m | - |
| 2026-07-24 | OAL075 | 46BC55 | Jul 24, 14:20 UTC | Jul 24, 14:50 UTC | 30m | - |
| 2026-07-24 | OAL069 | 46BC55 | Jul 24, 11:25 UTC | Jul 24, 11:50 UTC | 25m | - |
| 2026-07-24 | SEH473 | 46A60F | Jul 24, 10:20 UTC | Jul 24, 10:45 UTC | 25m | - |
| 2026-07-24 | OAL067 | 46BC4D | Jul 24, 09:40 UTC | Jul 24, 10:05 UTC | 25m | - |
| 2026-07-24 | OAL063 | 46BC51 | Jul 24, 07:30 UTC | Jul 24, 08:00 UTC | 30m | - |
| 2026-07-24 | SEH471 | 46D1CF | Jul 24, 05:50 UTC | Jul 24, 06:15 UTC | 25m | - |
| 2026-07-24 | OAL1PA | 46BC51 | Jul 24, 04:25 UTC | Jul 24, 04:50 UTC | 25m | - |
| 2026-07-24 | OAL9KT | 46BC4B | Jul 24, 03:25 UTC | Jul 24, 03:50 UTC | 25m | - |
| 2026-07-23 | SEH477 | 469934 | Jul 23, 17:20 UTC | Jul 23, 17:50 UTC | 30m | - |
| 2026-07-23 | OAL9PA | 46BC4E | Jul 23, 16:25 UTC | Jul 23, 16:55 UTC | 30m | - |
| 2026-07-23 | OAL7JS | 46BC51 | Jul 23, 15:35 UTC | Jul 23, 16:00 UTC | 25m | - |
| 2026-07-23 | OAL075 | 46BC4B | Jul 23, 14:10 UTC | Jul 23, 14:35 UTC | 25m | - |
| 2026-07-23 | SEH473 | 46BA85 | Jul 23, 10:35 UTC | Jul 23, 11:00 UTC | 25m | - |
| 2026-07-23 | OAL067 | 46BC4E | Jul 23, 10:10 UTC | Jul 23, 10:35 UTC | 25m | - |
| 2026-07-23 | OAL063 | 46BC4B | Jul 23, 06:50 UTC | Jul 23, 07:15 UTC | 25m | - |
| 2026-07-23 | SEH471 | 46D0C9 | Jul 23, 05:35 UTC | Jul 23, 06:05 UTC | 30m | - |
| 2026-07-23 | OAL1PA | 46BC4B | Jul 23, 04:20 UTC | Jul 23, 04:45 UTC | 25m | - |
| 2026-07-23 | OAL9KT | 46BC52 | Jul 23, 03:20 UTC | Jul 23, 03:45 UTC | 25m | - |
| 2026-07-22 | OAL9PA | 46BC55 | Jul 22, 17:05 UTC | Jul 22, 17:35 UTC | 30m | - |